Weather in V农ng T脿u

Vietnam     10掳22鈥21鈥砃   107掳05鈥52鈥矱
袙 邪锌褉械谢械 2022 谐芯写邪 卸懈褌械谢褟屑 袪芯褋褋懈懈 蟹邪锌褉械褌懈谢懈 锌芯褋械褖邪褌褜 褋邪泄褌 meteo.paraplan.net 锌芯 褉械褕械薪懈褞 袚械薪械褉邪谢褜薪芯泄 锌褉芯泻褍褉邪褌褍褉褘. 袗褍写懈褌芯褉懈褟 褋邪泄褌邪 褍屑械薪褜褕懈谢邪褋褜 胁 10 褉邪蟹. 袙谢邪写械谢褜褑褘 褋邪泄褌邪 薪械 胁懈写褟褌 褋屑褘褋谢邪 胁 锌芯写写械褉卸泻械 锌芯谐芯写薪芯谐芯 褋械褉胁械褉邪 胁 褌邪泻懈褏 褍褋谢芯胁懈褟褏. 小邪泄褌 斜褍写械褌 蟹邪泻褉褘褌 胁 芯泻褌褟斜褉械.
temp.,
掳C
wind,
m/s
gust,
m/s
humid.,
%
clouds,
%
prec.,
mm/h
press.,
hPa
HPBL,
m
26 september, mon
mon2601:00+27wnw3481100 1.4 1008348
04:00+27wnw7982100 0.7 1007653
07:00+26nw4483100 0.8 1008390
10:00+27nw568053 0.0 1009533
13:00+28sw5575100 0.1 1007364
16:00+29nw5674100 3.2 1006751
19:00+28wnw4574100 7.7 1007419
22:00+27wnw4579100 3.9 1009261
27 september, tue
tue2701:00+26nw7886100 9.8 1007332
04:00+26nw678687 0.4 1006450
07:00+26nw6886100 1.4 1007516
10:00+26nw6781100 0.1 1008614
13:00+28wnw8973100 1.3 10051030
16:00+28w6772100 0.4 1003771
19:00+27wsw101082100 6.1 1005592
22:00+27wsw121482100 2.1 1006855
28 september, wed
wed2801:00+27wsw111581100 2.5 1004893
04:00+27w131779100 0.4 10031125
07:00+27wsw121682100 1.3 10041099
10:00+27w131780100 0.1 10041132
13:00+27w131880100 0.1 10021130
16:00+28wsw131878100 0.0 10021207
19:00+27wsw121781100 0.2 10041206
22:00+27wsw101484100 1.9 1005987
29 september, thu
thu2901:00+27wsw111684100 6.1 1004991
04:00+27wsw111579100 2.1 10041065
07:00+27wsw101482100 3.2 1006867
10:00+28wsw91274100 4.0 10071105
13:00+28wsw8107499 6.4 10051165
16:00+29wsw79756 2.6 10041063
19:00+29wsw797690 3.9 10061045
22:00+28wsw6778100 1.4 1009565
30 september, fri
fri3001:00+27wsw687796 1.4 1007593
04:00+27wsw687926 0.9 1006523
07:00+27wsw7882100 3.3 1008488
10:00+27wsw5681100 2.1 1009512
13:00+28sw4578100 5.5 1006329
16:00+28sw7781100 2.5 1005670
19:00+28wsw7882100 9.9 1007468
22:00+28wsw7882100 3.8 1008603